Notices

What's New in latest Release from April 7th, 2021:

- Updated Glossary, including Speed of Maximum Gust, and Total Hourly Precipitation

- Updated national and regional climate services offices contacts and prices information

- Addition of station inventory lists for 1981-2010, 1971-2000, and 1961-1990 Normals.

If you haven't already, please take our survey and provide feedback about our website: https://eccc.sondage-survey.ca/f/LanguageSelection.aspx?s=442ca660-fcf1-47c0-95a9-59707d6fd709

Hourly Data Report for August 01, 2016

TORONTO CITY
ONTARIO

43°40'00.000" N
79°24'00.000" W
112.50 m
6158355
71508
XTO

Download Data

Hourly Data (August 2016)
Hourly Data Report for August 1, 2016
TIME
LST
Temp Definition
°C
Dew Point Definition
°C
Rel Hum Definition
%
Precip. Amount Definition
mm

Wind Dir Definition
10's deg

Wind Spd Definition
km/h
Visibility Definition
km
Stn Press Definition
kPa
Hmdx Definition


Wind Chill Definition


Weather Definition


00:00 20.3 15.7 75 0.0 LegendMM LegendMM   100.39 25   LegendNANA
01:00 20.7 14.3 67 0.0 LegendMM LegendMM   100.38     LegendNANA
02:00 21.1 14.2 65 0.0 LegendMM LegendMM   100.38 25   LegendNANA
03:00 20.7 15.5 72 0.0 LegendMM LegendMM   100.37 25   LegendNANA
04:00 20.5 14.8 70 0.0 LegendMM LegendMM   100.37     LegendNANA
05:00 20.7 15.0 70 0.0 LegendMM LegendMM   100.41 25   LegendNANA
06:00 20.9 16.7 77 0.0 LegendMM LegendMM   100.46 26   LegendNANA
07:00 21.8 17.1 75 0.0 LegendMM LegendMM   100.48 27   LegendNANA
08:00 23.0 18.1 74 0.0 LegendMM LegendMM   100.49 29   LegendNANA
09:00 23.8 18.6 73 0.0 LegendMM LegendMM   100.54 30   LegendNANA
10:00 25.1 18.8 68 0.0 LegendMM LegendMM   100.54 32   LegendNANA
11:00 25.9 18.4 63 0.0 LegendMM LegendMM   100.51 32   LegendNANA
12:00 26.0 17.9 61 0.0 LegendMM LegendMM   100.49 32   LegendNANA
13:00 25.7 17.3 60 0.0 LegendMM LegendMM   100.53 31   LegendNANA
14:00 26.4 17.2 57 0.0 LegendMM LegendMM   100.51 32   LegendNANA
15:00 26.6 16.2 53 0.0 LegendMM LegendMM   100.47 31   LegendNANA
16:00 26.8 15.3 49 0.0 LegendMM LegendMM   100.42 31   LegendNANA
17:00 26.9 15.6 50 0.0 LegendMM LegendMM   100.39 31   LegendNANA
18:00 25.9 16.4 56 0.0 LegendMM LegendMM   100.37 31   LegendNANA
19:00 25.7 15.0 51 0.0 LegendMM LegendMM   100.39 30   LegendNANA
20:00 24.0 14.1 54 0.0 LegendMM LegendMM   100.41 27   LegendNANA
21:00 23.3 14.3 57 0.0 LegendMM LegendMM   100.49 27   LegendNANA
22:00 22.7 14.3 59 0.0 LegendMM LegendMM   100.53 26   LegendNANA
23:00 21.9 14.5 63 0.0 LegendMM LegendMM   100.57 26   LegendNANA

Notes on Data Quality.

Legend

  • E = Estimated
  • M = Missing
  • NA = Not Available*
  • [empty] = Indicates an unobserved value
Date modified: